| time (UTC) | temp F | wind direction | speed MPH | gust MPH | rain 1hr in | rain 24hr in | rain mn in | humidity % | barometer mb |
| 20260507134553 | 54 | 117 | 0.0 | 0.0 | 0.00 | 0.00 | 0.00 | 73 | 1018.9 |
| 20260507134049 | 53 | 63 | 0.0 | 0.0 | 0.00 | 0.00 | 0.00 | 75 | 1019.0 |
| 20260507133540 | 52 | 25 | 0.0 | 1.0 | 0.00 | 0.00 | 0.00 | 79 | 1019.1 |
| 20260507133038 | 51 | 63 | 0.0 | 0.0 | 0.00 | 0.00 | 0.00 | 84 | 1018.9 |
| 20260507132534 | 50 | 64 | 0.0 | 0.0 | 0.00 | 0.00 | 0.00 | 87 | 1018.9 |
| 20260507132031 | 50 | 73 | 0.0 | 0.0 | 0.00 | 0.00 | 0.00 | 91 | 1018.9 |
| 20260507131528 | 49 | 82 | 0.0 | 0.0 | 0.00 | 0.00 | 0.00 | 93 | 1018.9 |
| 20260507131025 | 48 | 69 | 0.0 | 0.0 | 0.00 | 0.00 | 0.00 | 95 | 1019.0 |
| 20260507130522 | 48 | 35 | 0.0 | 1.0 | 0.00 | 0.00 | 0.00 | 96 | 1018.8 |
| 20260507130020 | 47 | 71 | 0.0 | 0.0 | 0.00 | 0.00 | 0.00 | 96 | 1018.9 |
| 20260507125518 | 46 | 113 | 0.0 | 0.0 | 0.00 | 0.00 | 0.00 | 96 | 1018.8 |
| 20260507125015 | 45 | 74 | 0.0 | 0.0 | 0.00 | 0.00 | 0.00 | 96 | 1018.8 |
| 20260507124512 | 44 | 74 | 0.0 | 0.0 | 0.00 | 0.00 | 0.00 | 96 | 1018.8 |
| 20260507124010 | 44 | 76 | 0.0 | 0.0 | 0.00 | 0.00 | 0.00 | 96 | 1018.8 |
| 20260507123507 | 42 | 127 | 0.0 | 0.0 | 0.00 | 0.00 | 0.00 | 96 | 1018.7 |
| 20260507123003 | 42 | 127 | 0.0 | 0.0 | 0.00 | 0.00 | 0.00 | 96 | 1018.4 |
| 20260507122458 | 41 | 127 | 0.0 | 0.0 | 0.00 | 0.00 | 0.00 | 96 | 1018.2 |
| 20260507121949 | 41 | 30 | 0.0 | 0.0 | 0.00 | 0.00 | 0.00 | 96 | 1018.6 |
| 20260507121445 | 41 | 30 | 0.0 | 0.0 | 0.00 | 0.00 | 0.00 | 96 | 1018.2 |
| 20260507120941 | 40 | 30 | 0.0 | 0.0 | 0.00 | 0.00 | 0.00 | 96 | 1018.2 |
| 20260507120438 | 40 | 30 | 0.0 | 0.0 | 0.00 | 0.00 | 0.00 | 96 | 1018.2 |
| 20260507115935 | 40 | 29 | 0.0 | 0.0 | 0.00 | 0.00 | 0.00 | 96 | 1018.4 |
| 20260507115430 | 40 | 29 | 0.0 | 0.0 | 0.00 | 0.00 | 0.00 | 96 | 1018.2 |
| 20260507114926 | 40 | 29 | 0.0 | 0.0 | 0.00 | 0.00 | 0.00 | 95 | 1018.0 |
| 20260507114423 | 40 | 29 | 0.0 | 0.0 | 0.00 | 0.00 | 0.00 | 95 | 1017.9 |
| 20260507113920 | 40 | 29 | 0.0 | 0.0 | 0.00 | 0.00 | 0.00 | 95 | 1018.1 |
| 20260507113417 | 40 | 29 | 0.0 | 0.0 | 0.00 | 0.00 | 0.00 | 95 | 1017.9 |
| 20260507112915 | 40 | 29 | 0.0 | 0.0 | 0.00 | 0.00 | 0.00 | 95 | 1018.1 |
| 20260507112412 | 40 | 29 | 0.0 | 0.0 | 0.00 | 0.00 | 0.00 | 95 | 1018.0 |
| 20260507111909 | 40 | 29 | 0.0 | 0.0 | 0.00 | 0.00 | 0.00 | 95 | 1018.1 |
| 20260507111406 | 40 | 29 | 0.0 | 0.0 | 0.00 | 0.00 | 0.00 | 95 | 1017.9 |
| 20260507110902 | 40 | 29 | 0.0 | 0.0 | 0.00 | 0.00 | 0.00 | 95 | 1018.0 |
| 20260507110358 | 40 | 29 | 0.0 | 0.0 | 0.00 | 0.00 | 0.00 | 95 | 1017.8 |
| 20260507105855 | 40 | 29 | 0.0 | 0.0 | 0.00 | 0.00 | 0.00 | 95 | 1017.8 |
| 20260507105352 | 41 | 29 | 0.0 | 0.0 | 0.00 | 0.00 | 0.00 | 95 | 1018.0 |
| 20260507104849 | 41 | 29 | 0.0 | 0.0 | 0.00 | 0.00 | 0.00 | 95 | 1017.9 |
| 20260507104346 | 41 | 29 | 0.0 | 0.0 | 0.00 | 0.00 | 0.00 | 94 | 1017.9 |
| 20260507103842 | 40 | 29 | 0.0 | 0.0 | 0.00 | 0.00 | 0.00 | 94 | 1017.8 |
| 20260507103338 | 40 | 29 | 0.0 | 0.0 | 0.00 | 0.00 | 0.00 | 94 | 1018.0 |
| 20260507102835 | 40 | 29 | 0.0 | 0.0 | 0.00 | 0.00 | 0.00 | 94 | 1017.9 |
| 20260507102331 | 40 | 29 | 0.0 | 0.0 | 0.00 | 0.00 | 0.00 | 94 | 1018.1 |
| 20260507101827 | 41 | 29 | 0.0 | 0.0 | 0.00 | 0.00 | 0.00 | 94 | 1018.1 |
| 20260507101322 | 41 | 29 | 0.0 | 0.0 | 0.00 | 0.00 | 0.00 | 94 | 1018.0 |
| 20260507100819 | 41 | 29 | 0.0 | 0.0 | 0.00 | 0.00 | 0.00 | 94 | 1018.1 |
| 20260507100317 | 41 | 29 | 0.0 | 0.0 | 0.00 | 0.00 | 0.00 | 93 | 1018.1 |
| 20260507095815 | 41 | 29 | 0.0 | 0.0 | 0.00 | 0.00 | 0.00 | 93 | 1018.2 |
| 20260507095311 | 41 | 29 | 0.0 | 0.0 | 0.00 | 0.00 | 0.00 | 93 | 1017.9 |
| 20260507094808 | 41 | 29 | 0.0 | 0.0 | 0.00 | 0.00 | 0.00 | 93 | 1018.1 |
| 20260507094305 | 41 | 29 | 0.0 | 0.0 | 0.00 | 0.00 | 0.00 | 93 | 1018.0 |
| 20260507093802 | 42 | 29 | 0.0 | 0.0 | 0.00 | 0.00 | 0.00 | 93 | 1018.1 |
| 20260507093301 | 42 | 29 | 0.0 | 0.0 | 0.00 | 0.00 | 0.00 | 93 | 1018.1 |
| 20260507092758 | 41 | 29 | 0.0 | 0.0 | 0.00 | 0.00 | 0.00 | 93 | 1018.2 |
| 20260507092254 | 41 | 29 | 0.0 | 0.0 | 0.00 | 0.00 | 0.00 | 93 | 1018.4 |
| 20260507091751 | 41 | 29 | 0.0 | 0.0 | 0.00 | 0.00 | 0.00 | 93 | 1018.0 |
| 20260507091248 | 42 | 29 | 0.0 | 0.0 | 0.00 | 0.00 | 0.00 | 93 | 1018.1 |
| 20260507090748 | 42 | 29 | 0.0 | 0.0 | 0.00 | 0.00 | 0.00 | 93 | 1017.8 |
| 20260507090244 | 42 | 29 | 0.0 | 0.0 | 0.00 | 0.00 | 0.00 | 93 | 1017.6 |
| 20260507085742 | 42 | 29 | 0.0 | 0.0 | 0.00 | 0.00 | 0.00 | 93 | 1017.9 |
| 20260507085239 | 42 | 29 | 0.0 | 0.0 | 0.00 | 0.00 | 0.00 | 92 | 1017.8 |
| 20260507084736 | 42 | 29 | 0.0 | 0.0 | 0.00 | 0.00 | 0.00 | 92 | 1017.8 |
| 20260507084232 | 42 | 29 | 0.0 | 0.0 | 0.00 | 0.00 | 0.00 | 92 | 1018.0 |
| 20260507083730 | 42 | 29 | 0.0 | 0.0 | 0.00 | 0.00 | 0.00 | 92 | 1017.9 |
| 20260507083226 | 42 | 29 | 0.0 | 0.0 | 0.00 | 0.00 | 0.00 | 91 | 1017.7 |
| 20260507082722 | 42 | 29 | 0.0 | 0.0 | 0.00 | 0.00 | 0.00 | 91 | 1018.0 |
| 20260507082218 | 42 | 29 | 0.0 | 0.0 | 0.00 | 0.00 | 0.00 | 91 | 1018.4 |
| 20260507081715 | 43 | 29 | 0.0 | 0.0 | 0.00 | 0.00 | 0.00 | 90 | 1018.1 |
| 20260507081211 | 43 | 29 | 0.0 | 0.0 | 0.00 | 0.00 | 0.00 | 90 | 1018.1 |
| 20260507080708 | 43 | 29 | 0.0 | 0.0 | 0.00 | 0.00 | 0.00 | 90 | 1017.9 |
| 20260507080204 | 43 | 29 | 0.0 | 0.0 | 0.00 | 0.00 | 0.00 | 90 | 1018.1 |
| 20260507075659 | 43 | 29 | 0.0 | 0.0 | 0.00 | 0.00 | 0.00 | 90 | 1018.4 |
| 20260507075156 | 44 | 29 | 0.0 | 0.0 | 0.00 | 0.00 | 0.00 | 90 | 1018.1 |
| 20260507074652 | 44 | 29 | 0.0 | 0.0 | 0.00 | 0.00 | 0.00 | 90 | 1018.2 |
| 20260507074151 | 44 | 29 | 0.0 | 0.0 | 0.00 | 0.00 | 0.00 | 89 | 1018.8 |
| 20260507073647 | 44 | 29 | 0.0 | 0.0 | 0.00 | 0.00 | 0.00 | 90 | 1018.7 |
| 20260507073143 | 44 | 29 | 0.0 | 0.0 | 0.00 | 0.00 | 0.00 | 90 | 1018.8 |
| 20260507072641 | 44 | 29 | 0.0 | 0.0 | 0.00 | 0.00 | 0.00 | 90 | 1018.5 |
| 20260507072138 | 44 | 29 | 0.0 | 0.0 | 0.00 | 0.00 | 0.00 | 90 | 1018.4 |
| 20260507071636 | 44 | 29 | 0.0 | 0.0 | 0.00 | 0.00 | 0.00 | 90 | 1017.8 |
| 20260507071132 | 44 | 29 | 0.0 | 0.0 | 0.00 | 0.00 | 0.00 | 89 | 1017.8 |
| 20260507070629 | 45 | 123 | 0.0 | 0.0 | 0.00 | 0.00 | 0.00 | 89 | 1017.8 |
| 20260507070126 | 45 | 123 | 0.0 | 0.0 | 0.00 | 0.00 | 0.00 | 89 | 1018.0 |
| 20260507065622 | 45 | 114 | 0.0 | 0.0 | 0.00 | 0.00 | 0.00 | 89 | 1017.8 |
| 20260507065119 | 45 | 114 | 0.0 | 0.0 | 0.00 | 0.00 | 0.00 | 88 | 1018.1 |
| 20260507064617 | 45 | 113 | 0.0 | 0.0 | 0.00 | 0.00 | 0.00 | 88 | 1017.8 |
| 20260507064116 | 44 | 113 | 0.0 | 0.0 | 0.00 | 0.00 | 0.00 | 88 | 1017.9 |
| 20260507063613 | 44 | 113 | 0.0 | 0.0 | 0.00 | 0.00 | 0.00 | 88 | 1017.9 |
| 20260507063110 | 44 | 113 | 0.0 | 0.0 | 0.00 | 0.00 | 0.00 | 88 | 1017.9 |
| 20260507062606 | 44 | 113 | 0.0 | 0.0 | 0.00 | 0.00 | 0.00 | 87 | 1018.2 |
| 20260507062104 | 45 | 113 | 0.0 | 0.0 | 0.00 | 0.00 | 0.00 | 87 | 1018.4 |
| 20260507061601 | 45 | 113 | 0.0 | 0.0 | 0.00 | 0.00 | 0.00 | 86 | 1018.2 |
| 20260507061059 | 45 | 113 | 0.0 | 0.0 | 0.00 | 0.00 | 0.00 | 86 | 1018.2 |
| 20260507060557 | 45 | 113 | 0.0 | 0.0 | 0.00 | 0.00 | 0.00 | 85 | 1018.2 |
| 20260507060053 | 46 | 113 | 0.0 | 0.0 | 0.00 | 0.00 | 0.00 | 84 | 1018.7 |
| 20260507055548 | 46 | 113 | 0.0 | 0.0 | 0.00 | 0.00 | 0.00 | 84 | 1018.8 |
| 20260507055045 | 46 | 113 | 0.0 | 0.0 | 0.00 | 0.00 | 0.00 | 83 | 1018.9 |
| 20260507054541 | 47 | 113 | 0.0 | 0.0 | 0.00 | 0.00 | 0.00 | 83 | 1019.1 |
| 20260507054038 | 46 | 113 | 0.0 | 0.0 | 0.00 | 0.00 | 0.00 | 82 | 1019.0 |
| 20260507053536 | 47 | 113 | 0.0 | 0.0 | 0.00 | 0.00 | 0.00 | 82 | 1019.0 |
| 20260507053035 | 46 | 113 | 0.0 | 0.0 | 0.00 | 0.00 | 0.00 | 82 | 1019.0 |
| 20260507052532 | 46 | 113 | 0.0 | 0.0 | 0.00 | 0.00 | 0.00 | 81 | 1018.9 |
| 20260507052028 | 46 | 113 | 0.0 | 0.0 | 0.00 | 0.00 | 0.00 | 81 | 1018.9 |
| 20260507051526 | 46 | 113 | 0.0 | 0.0 | 0.00 | 0.00 | 0.00 | 81 | 1018.8 |
| 20260507051023 | 46 | 113 | 0.0 | 0.0 | 0.00 | 0.00 | 0.00 | 81 | 1018.6 |
| 20260507050519 | 46 | 113 | 0.0 | 0.0 | 0.00 | 0.00 | 0.00 | 80 | 1018.4 |
| 20260507050016 | 47 | 113 | 0.0 | 0.0 | 0.00 | 0.00 | 0.00 | 80 | 1018.4 |
| 20260507045513 | 47 | 113 | 0.0 | 0.0 | 0.00 | 0.00 | 0.00 | 80 | 1018.0 |
| 20260507045010 | 47 | 113 | 0.0 | 0.0 | 0.00 | 0.00 | 0.00 | 79 | 1018.1 |
| 20260507044506 | 47 | 113 | 0.0 | 0.0 | 0.00 | 0.00 | 0.00 | 79 | 1018.1 |
| 20260507044003 | 47 | 113 | 0.0 | 0.0 | 0.00 | 0.00 | 0.00 | 78 | 1018.1 |
| 20260507043459 | 48 | 113 | 0.0 | 0.0 | 0.00 | 0.00 | 0.00 | 78 | 1018.0 |
| 20260507042955 | 48 | 113 | 0.0 | 0.0 | 0.00 | 0.00 | 0.00 | 78 | 1017.9 |
| 20260507042452 | 48 | 113 | 0.0 | 0.0 | 0.00 | 0.00 | 0.00 | 78 | 1017.8 |
| 20260507041948 | 48 | 113 | 0.0 | 1.0 | 0.00 | 0.00 | 0.00 | 77 | 1017.7 |
| 20260507041445 | 48 | 113 | 0.0 | 0.0 | 0.00 | 0.00 | 0.00 | 77 | 1017.7 |
| 20260507040942 | 48 | 113 | 0.0 | 0.0 | 0.00 | 0.00 | 0.00 | 76 | 1017.8 |
| 20260507040438 | 49 | 113 | 0.0 | 0.0 | 0.00 | 0.00 | 0.00 | 75 | 1018.0 |
| 20260507035934 | 49 | 113 | 0.0 | 0.0 | 0.00 | 0.00 | 0.00 | 75 | 1017.6 |
| 20260507035431 | 50 | 113 | 0.0 | 0.0 | 0.00 | 0.00 | 0.00 | 74 | 1017.8 |
| 20260507034927 | 50 | 113 | 0.0 | 0.0 | 0.00 | 0.00 | 0.00 | 74 | 1018.1 |
| 20260507034424 | 50 | 113 | 0.0 | 0.0 | 0.00 | 0.00 | 0.00 | 74 | 1017.9 |
| 20260507033922 | 50 | 113 | 0.0 | 0.0 | 0.00 | 0.00 | 0.00 | 73 | 1017.9 |
| 20260507033420 | 50 | 113 | 0.0 | 0.0 | 0.00 | 0.00 | 0.00 | 71 | 1017.5 |
| 20260507032917 | 51 | 113 | 0.0 | 0.0 | 0.00 | 0.00 | 0.00 | 71 | 1017.6 |
| 20260507032414 | 51 | 114 | 0.0 | 0.0 | 0.00 | 0.00 | 0.00 | 70 | 1017.4 |
| 20260507031910 | 51 | 114 | 0.0 | 0.0 | 0.00 | 0.00 | 0.00 | 70 | 1017.6 |
| 20260507031406 | 51 | 114 | 0.0 | 0.0 | 0.00 | 0.00 | 0.00 | 70 | 1017.3 |
| 20260507030903 | 51 | 113 | 0.0 | 0.0 | 0.00 | 0.00 | 0.00 | 69 | 1017.4 |
| 20260507030401 | 51 | 113 | 0.0 | 0.0 | 0.00 | 0.00 | 0.00 | 70 | 1017.2 |
| 20260507025857 | 52 | 113 | 0.0 | 0.0 | 0.00 | 0.00 | 0.00 | 69 | 1017.3 |
| 20260507025355 | 52 | 113 | 0.0 | 0.0 | 0.00 | 0.00 | 0.00 | 68 | 1017.0 |
| 20260507024853 | 53 | 113 | 0.0 | 0.0 | 0.00 | 0.00 | 0.00 | 68 | 1017.3 |
| 20260507024350 | 53 | 113 | 0.0 | 0.0 | 0.00 | 0.00 | 0.00 | 67 | 1017.3 |
| 20260507023845 | 54 | 113 | 0.0 | 0.0 | 0.00 | 0.00 | 0.00 | 66 | 1017.2 |
| 20260507023342 | 54 | 114 | 0.0 | 0.0 | 0.00 | 0.00 | 0.00 | 64 | 1016.9 |
| 20260507022839 | 55 | 114 | 0.0 | 0.0 | 0.00 | 0.00 | 0.00 | 63 | 1016.9 |
| 20260507022336 | 55 | 127 | 0.0 | 0.0 | 0.00 | 0.00 | 0.00 | 63 | 1017.0 |
| 20260507021832 | 56 | 126 | 0.0 | 0.0 | 0.00 | 0.00 | 0.00 | 61 | 1016.9 |
| 20260507021327 | 56 | 127 | 0.0 | 0.0 | 0.00 | 0.00 | 0.00 | 61 | 1016.9 |
| 20260507020826 | 56 | 127 | 0.0 | 0.0 | 0.00 | 0.00 | 0.00 | 61 | 1016.9 |
| 20260507020322 | 56 | 126 | 0.0 | 0.0 | 0.00 | 0.00 | 0.00 | 61 | 1016.7 |
| 20260507015819 | 57 | 126 | 0.0 | 0.0 | 0.00 | 0.00 | 0.00 | 59 | 1016.7 |
| 20260507015317 | 57 | 124 | 0.0 | 0.0 | 0.00 | 0.00 | 0.00 | 57 | 1016.7 |
| 20260507014814 | 58 | 123 | 0.0 | 0.0 | 0.00 | 0.00 | 0.00 | 56 | 1016.6 |
| 20260507014310 | 58 | 129 | 0.0 | 0.0 | 0.00 | 0.00 | 0.00 | 56 | 1016.6 |
| 20260507013806 | 59 | 122 | 0.0 | 0.0 | 0.00 | 0.00 | 0.00 | 55 | 1016.5 |
| 20260507013304 | 59 | 117 | 1.0 | 1.0 | 0.00 | 0.00 | 0.00 | 54 | 1016.4 |
| 20260507012801 | 59 | 80 | 1.0 | 2.0 | 0.00 | 0.00 | 0.00 | 52 | 1016.7 |
| 20260507012256 | 59 | 165 | 0.0 | 0.0 | 0.00 | 0.00 | 0.00 | 52 | 1016.6 |
| 20260507011754 | 60 | 71 | 0.0 | 0.0 | 0.00 | 0.00 | 0.00 | 51 | 1016.4 |
| 20260507011251 | 60 | 33 | 1.0 | 1.0 | 0.00 | 0.00 | 0.00 | 51 | 1016.6 |
| 20260507010750 | 60 | 125 | 0.0 | 0.0 | 0.00 | 0.00 | 0.00 | 52 | 1016.4 |
| 20260507010246 | 60 | 139 | 0.0 | 0.0 | 0.00 | 0.00 | 0.00 | 51 | 1016.4 |
| 20260507005744 | 60 | 117 | 0.0 | 0.0 | 0.00 | 0.00 | 0.00 | 52 | 1016.2 |
| 20260507005240 | 60 | 123 | 0.0 | 1.0 | 0.00 | 0.00 | 0.00 | 50 | 1016.3 |
| 20260507004737 | 60 | 93 | 0.0 | 1.0 | 0.00 | 0.00 | 0.00 | 50 | 1016.5 |
| 20260507004235 | 60 | 126 | 0.0 | 0.0 | 0.00 | 0.00 | 0.00 | 50 | 1016.2 |
| 20260507003730 | 61 | 145 | 0.0 | 1.0 | 0.00 | 0.00 | 0.00 | 48 | 1016.3 |
| 20260507003226 | 61 | 115 | 0.0 | 1.0 | 0.00 | 0.00 | 0.00 | 48 | 1016.2 |
| 20260507002722 | 62 | 127 | 0.0 | 0.0 | 0.00 | 0.00 | 0.00 | 48 | 1016.1 |
| 20260507002219 | 63 | 169 | 0.0 | 0.0 | 0.00 | 0.00 | 0.00 | 47 | 1016.1 |
| 20260507001715 | 64 | 122 | 0.0 | 0.0 | 0.00 | 0.00 | 0.00 | 45 | 1016.2 |
| 20260507001213 | 65 | 212 | 0.0 | 0.0 | 0.00 | 0.00 | 0.00 | 44 | 1015.9 |
| 20260507000709 | 65 | 147 | 0.0 | 0.0 | 0.00 | 0.00 | 0.00 | 45 | 1016.1 |
| 20260507000205 | 64 | 138 | 1.0 | 1.0 | 0.00 | 0.00 | 0.00 | 45 | 1016.1 |
| 20260506235702 | 65 | 95 | 0.0 | 0.0 | 0.00 | 0.00 | 0.00 | 44 | 1016.0 |
| 20260506235157 | 66 | 278 | 2.0 | 3.0 | 0.00 | 0.00 | 0.00 | 42 | 1015.8 |
| 20260506234654 | 66 | 162 | 0.0 | 1.0 | 0.00 | 0.00 | 0.00 | 41 | 1016.0 |
| 20260506234151 | 66 | 167 | 1.0 | 1.0 | 0.00 | 0.00 | 0.00 | 42 | 1015.9 |
| 20260506233649 | 66 | 140 | 0.0 | 1.0 | 0.00 | 0.00 | 0.00 | 41 | 1015.9 |
| 20260506233145 | 66 | 123 | 2.0 | 2.0 | 0.00 | 0.00 | 0.00 | 41 | 1015.7 |
| 20260506232641 | 66 | 162 | 1.0 | 1.0 | 0.00 | 0.00 | 0.00 | 42 | 1015.8 |
| 20260506232137 | 66 | 291 | 1.0 | 2.0 | 0.00 | 0.00 | 0.00 | 40 | 1015.5 |
| 20260506231634 | 67 | 134 | 0.0 | 1.0 | 0.00 | 0.00 | 0.00 | 40 | 1015.6 |
| 20260506231133 | 66 | 232 | 2.0 | 3.0 | 0.00 | 0.00 | 0.00 | 42 | 1015.7 |
| 20260506230629 | 67 | 109 | 1.0 | 2.0 | 0.00 | 0.00 | 0.00 | 42 | 1015.4 |
| 20260506230126 | 67 | 208 | 1.0 | 1.0 | 0.00 | 0.00 | 0.00 | 42 | 1015.5 |
| 20260506225623 | 66 | 133 | 0.0 | 1.0 | 0.00 | 0.00 | 0.00 | 42 | 1015.2 |
| 20260506225119 | 65 | 144 | 1.0 | 1.0 | 0.00 | 0.00 | 0.00 | 43 | 1015.2 |
| 20260506224616 | 65 | 185 | 1.0 | 1.0 | 0.00 | 0.00 | 0.00 | 44 | 1015.1 |
| 20260506224113 | 65 | 190 | 1.0 | 2.0 | 0.00 | 0.00 | 0.00 | 46 | 1015.1 |
| 20260506223609 | 66 | 80 | 1.0 | 1.0 | 0.00 | 0.00 | 0.00 | 42 | 1014.9 |
| 20260506223105 | 66 | 165 | 3.0 | 6.0 | 0.00 | 0.00 | 0.00 | 43 | 1015.1 |
| 20260506222602 | 66 | 73 | 1.0 | 2.0 | 0.00 | 0.00 | 0.00 | 45 | 1014.7 |
| 20260506222058 | 65 | 21 | 2.0 | 3.0 | 0.00 | 0.00 | 0.00 | 44 | 1014.8 |
| 20260506221556 | 65 | 188 | 1.0 | 2.0 | 0.00 | 0.00 | 0.00 | 43 | 1014.8 |
| 20260506221054 | 66 | 167 | 0.0 | 1.0 | 0.00 | 0.00 | 0.00 | 45 | 1014.6 |
| 20260506220550 | 65 | 289 | 2.0 | 2.0 | 0.00 | 0.00 | 0.00 | 45 | 1014.7 |
| 20260506220045 | 66 | 210 | 2.0 | 3.0 | 0.00 | 0.00 | 0.00 | 42 | 1014.6 |
| 20260506215542 | 66 | 134 | 1.0 | 1.0 | 0.00 | 0.00 | 0.00 | 44 | 1014.7 |
| 20260506215038 | 68 | 84 | 2.0 | 3.0 | 0.00 | 0.00 | 0.00 | 42 | 1014.6 |
| 20260506214535 | 69 | 108 | 1.0 | 2.0 | 0.00 | 0.00 | 0.00 | 41 | 1014.8 |
| 20260506214033 | 69 | 261 | 1.0 | 2.0 | 0.00 | 0.00 | 0.00 | 41 | 1014.9 |
| 20260506213530 | 68 | 225 | 1.0 | 1.0 | 0.00 | 0.00 | 0.00 | 42 | 1015.0 |
| 20260506213027 | 69 | 158 | 1.0 | 1.0 | 0.00 | 0.00 | 0.00 | 41 | 1015.0 |
| 20260506212524 | 68 | 215 | 0.0 | 1.0 | 0.00 | 0.00 | 0.00 | 43 | 1015.0 |
| 20260506212019 | 68 | 2 | 1.0 | 1.0 | 0.00 | 0.00 | 0.00 | 43 | 1015.0 |
| 20260506211515 | 66 | 131 | 0.0 | 0.0 | 0.00 | 0.00 | 0.00 | 45 | 1015.1 |
| 20260506211013 | 66 | 134 | 0.0 | 1.0 | 0.00 | 0.00 | 0.00 | 45 | 1015.1 |
| 20260506210509 | 66 | 168 | 1.0 | 1.0 | 0.00 | 0.00 | 0.00 | 44 | 1015.2 |
| 20260506210006 | 64 | 119 | 1.0 | 1.0 | 0.00 | 0.00 | 0.00 | 46 | 1015.3 |
| 20260506205502 | 65 | 136 | 1.0 | 1.0 | 0.00 | 0.00 | 0.00 | 47 | 1015.3 |
| 20260506204958 | 66 | 132 | 3.0 | 4.0 | 0.00 | 0.00 | 0.00 | 45 | 1015.2 |
| 20260506204456 | 66 | 358 | 0.0 | 0.0 | 0.00 | 0.00 | 0.00 | 44 | 1015.2 |
| 20260506203953 | 66 | 174 | 2.0 | 2.0 | 0.00 | 0.00 | 0.00 | 46 | 1015.5 |
| 20260506203450 | 66 | 296 | 1.0 | 1.0 | 0.00 | 0.00 | 0.00 | 49 | 1015.4 |
| 20260506202947 | 66 | 106 | 1.0 | 1.0 | 0.00 | 0.00 | 0.00 | 46 | 1015.4 |
| 20260506202444 | 65 | 172 | 1.0 | 1.0 | 0.00 | 0.00 | 0.00 | 45 | 1015.4 |
| 20260506201940 | 65 | 122 | 1.0 | 2.0 | 0.00 | 0.00 | 0.00 | 45 | 1015.5 |
| 20260506201438 | 64 | 119 | 0.0 | 1.0 | 0.00 | 0.00 | 0.00 | 47 | 1015.6 |
| 20260506200934 | 65 | 151 | 2.0 | 3.0 | 0.00 | 0.00 | 0.00 | 46 | 1015.4 |
| 20260506200431 | 64 | 123 | 1.0 | 2.0 | 0.00 | 0.00 | 0.00 | 46 | 1015.5 |
| 20260506195927 | 64 | 172 | 1.0 | 1.0 | 0.00 | 0.00 | 0.00 | 45 | 1015.7 |
| 20260506195425 | 64 | 170 | 0.0 | 1.0 | 0.00 | 0.00 | 0.00 | 47 | 1015.9 |
| 20260506194921 | 64 | 294 | 3.0 | 6.0 | 0.00 | 0.00 | 0.00 | 46 | 1015.8 |
| 20260506194418 | 64 | 37 | 0.0 | 0.0 | 0.00 | 0.00 | 0.00 | 48 | 1015.7 |
| 20260506193915 | 65 | 132 | 2.0 | 2.0 | 0.00 | 0.00 | 0.00 | 48 | 1015.8 |
| 20260506193412 | 65 | 175 | 1.0 | 2.0 | 0.00 | 0.00 | 0.00 | 46 | 1015.7 |
| 20260506192908 | 65 | 148 | 2.0 | 3.0 | 0.00 | 0.00 | 0.00 | 44 | 1015.8 |
| 20260506192406 | 66 | 122 | 2.0 | 2.0 | 0.00 | 0.00 | 0.00 | 43 | 1015.5 |
| 20260506191903 | 66 | 145 | 1.0 | 2.0 | 0.00 | 0.00 | 0.00 | 45 | 1015.9 |
| 20260506191359 | 65 | 321 | 2.0 | 2.0 | 0.00 | 0.00 | 0.00 | 45 | 1016.1 |
| 20260506190856 | 65 | 175 | 2.0 | 4.0 | 0.00 | 0.00 | 0.00 | 44 | 1016.0 |
| 20260506190352 | 64 | 162 | 1.0 | 1.0 | 0.00 | 0.00 | 0.00 | 46 | 1015.9 |
| 20260506185849 | 64 | 185 | 3.0 | 4.0 | 0.00 | 0.00 | 0.00 | 46 | 1016.1 |
| 20260506185346 | 66 | 347 | 0.0 | 1.0 | 0.00 | 0.00 | 0.00 | 44 | 1016.3 |
| 20260506184843 | 66 | 208 | 1.0 | 2.0 | 0.00 | 0.00 | 0.00 | 44 | 1016.4 |
| 20260506184340 | 66 | 296 | 4.0 | 6.0 | 0.00 | 0.00 | 0.00 | 45 | 1016.4 |
| 20260506183837 | 65 | 170 | 1.0 | 2.0 | 0.00 | 0.00 | 0.00 | 46 | 1016.5 |
| 20260506183333 | 65 | 87 | 0.0 | 1.0 | 0.00 | 0.00 | 0.00 | 49 | 1016.3 |
| 20260506182830 | 66 | 17 | 1.0 | 1.0 | 0.00 | 0.00 | 0.00 | 46 | 1016.5 |
| 20260506182327 | 65 | 177 | 2.0 | 3.0 | 0.00 | 0.00 | 0.00 | 45 | 1016.6 |
| 20260506181825 | 65 | 43 | 1.0 | 1.0 | 0.00 | 0.00 | 0.00 | 47 | 1016.5 |
| 20260506181323 | 63 | 115 | 2.0 | 3.0 | 0.00 | 0.00 | 0.00 | 46 | 1016.6 |
| 20260506180820 | 64 | 152 | 1.0 | 2.0 | 0.00 | 0.00 | 0.00 | 46 | 1016.7 |
| 20260506180316 | 64 | 203 | 2.0 | 3.0 | 0.00 | 0.00 | 0.00 | 44 | 1016.8 |
| 20260506175812 | 64 | 145 | 2.0 | 3.0 | 0.00 | 0.00 | 0.00 | 45 | 1016.8 |
| 20260506175309 | 64 | 298 | 3.0 | 8.0 | 0.00 | 0.00 | 0.00 | 45 | 1016.7 |
| 20260506174806 | 64 | 99 | 2.0 | 4.0 | 0.00 | 0.00 | 0.00 | 44 | 1016.8 |
| 20260506174303 | 63 | 127 | 1.0 | 1.0 | 0.00 | 0.00 | 0.00 | 47 | 1016.7 |
| 20260506173801 | 63 | 172 | 2.0 | 3.0 | 0.00 | 0.00 | 0.00 | 46 | 1016.9 |
| 20260506173257 | 64 | 94 | 2.0 | 3.0 | 0.00 | 0.00 | 0.00 | 45 | 1017.0 |
| 20260506172754 | 62 | 33 | 3.0 | 8.0 | 0.00 | 0.00 | 0.00 | 47 | 1017.0 |
| 20260506172251 | 64 | 99 | 1.0 | 1.0 | 0.00 | 0.00 | 0.00 | 48 | 1016.9 |
| 20260506171749 | 63 | 124 | 2.0 | 3.0 | 0.00 | 0.00 | 0.00 | 46 | 1016.8 |
| 20260506171246 | 63 | 137 | 2.0 | 3.0 | 0.00 | 0.00 | 0.00 | 46 | 1016.8 |
| 20260506170743 | 63 | 152 | 4.0 | 6.0 | 0.00 | 0.00 | 0.00 | 46 | 1017.1 |
| 20260506170239 | 62 | 159 | 3.0 | 4.0 | 0.00 | 0.00 | 0.00 | 47 | 1017.2 |
| 20260506165738 | 62 | 26 | 2.0 | 2.0 | 0.00 | 0.00 | 0.00 | 49 | 1017.0 |
| 20260506165235 | 62 | 166 | 2.0 | 2.0 | 0.00 | 0.00 | 0.00 | 49 | 1017.1 |
| 20260506164732 | 61 | 113 | 2.0 | 2.0 | 0.00 | 0.00 | 0.00 | 51 | 1017.0 |
| 20260506164229 | 62 | 159 | 2.0 | 2.0 | 0.00 | 0.00 | 0.00 | 49 | 1017.1 |
| 20260506163725 | 62 | 118 | 1.0 | 2.0 | 0.00 | 0.00 | 0.00 | 49 | 1017.2 |
| 20260506163220 | 61 | 133 | 2.0 | 2.0 | 0.00 | 0.00 | 0.00 | 51 | 1017.2 |
| 20260506162717 | 60 | 98 | 2.0 | 3.0 | 0.00 | 0.00 | 0.00 | 53 | 1017.1 |
| 20260506162214 | 60 | 155 | 2.0 | 4.0 | 0.00 | 0.00 | 0.00 | 53 | 1017.1 |
| 20260506161706 | 62 | 215 | 1.0 | 2.0 | 0.00 | 0.00 | 0.00 | 52 | 1017.3 |
| 20260506161203 | 60 | 98 | 1.0 | 2.0 | 0.00 | 0.00 | 0.00 | 58 | 1017.3 |
| 20260506160700 | 60 | 113 | 1.0 | 1.0 | 0.00 | 0.00 | 0.00 | 56 | 1017.1 |
| 20260506160157 | 60 | 107 | 2.0 | 2.0 | 0.00 | 0.00 | 0.00 | 55 | 1017.2 |
| 20260506155655 | 59 | 130 | 1.0 | 2.0 | 0.00 | 0.00 | 0.00 | 59 | 1017.3 |
| 20260506155152 | 59 | 203 | 0.0 | 1.0 | 0.00 | 0.00 | 0.00 | 59 | 1016.8 |
| 20260506153254 | 60 | 145 | 1.0 | 1.0 | 0.00 | 0.00 | 0.00 | 59 | 1016.9 |
| 20260506152751 | 59 | 71 | 1.0 | 2.0 | 0.00 | 0.00 | 0.00 | 60 | 1017.2 |
| 20260506152248 | 58 | 354 | 2.0 | 3.0 | 0.00 | 0.00 | 0.00 | 59 | 1016.9 |
| 20260506151747 | 57 | 142 | 1.0 | 1.0 | 0.00 | 0.00 | 0.00 | 63 | 1016.8 |
| 20260506151243 | 56 | 153 | 1.0 | 2.0 | 0.00 | 0.00 | 0.00 | 65 | 1016.8 |
| 20260506150740 | 55 | 127 | 2.0 | 2.0 | 0.00 | 0.00 | 0.00 | 65 | 1017.1 |
| 20260506150237 | 55 | 114 | 2.0 | 3.0 | 0.00 | 0.00 | 0.00 | 65 | 1016.9 |
| 20260506145734 | 55 | 48 | 1.0 | 1.0 | 0.00 | 0.00 | 0.00 | 67 | 1016.8 |
| 20260506145230 | 54 | 76 | 3.0 | 4.0 | 0.00 | 0.00 | 0.00 | 67 | 1016.5 |
| 20260506144728 | 54 | 133 | 1.0 | 2.0 | 0.00 | 0.00 | 0.00 | 67 | 1016.4 |
| 20260506144225 | 54 | 102 | 0.0 | 1.0 | 0.00 | 0.00 | 0.00 | 68 | 1016.4 |
| 20260506143722 | 53 | 149 | 2.0 | 3.0 | 0.00 | 0.00 | 0.00 | 69 | 1016.6 |
| 20260506143220 | 53 | 314 | 1.0 | 2.0 | 0.00 | 0.00 | 0.00 | 70 | 1016.3 |
| 20260506142718 | 52 | 169 | 2.0 | 2.0 | 0.00 | 0.00 | 0.00 | 70 | 1016.3 |
| 20260506142216 | 52 | 43 | 1.0 | 2.0 | 0.00 | 0.00 | 0.00 | 71 | 1016.5 |
| 20260506141714 | 52 | 75 | 1.0 | 2.0 | 0.00 | 0.00 | 0.00 | 71 | 1016.2 |
| 20260506141212 | 53 | 180 | 1.0 | 2.0 | 0.00 | 0.00 | 0.00 | 72 | 1016.1 |
| 20260506140709 | 52 | 118 | 1.0 | 2.0 | 0.00 | 0.00 | 0.00 | 73 | 1016.2 |
| 20260506140206 | 52 | 184 | 1.0 | 1.0 | 0.00 | 0.00 | 0.00 | 74 | 1016.2 |
| 20260506135703 | 52 | 110 | 0.0 | 0.0 | 0.00 | 0.00 | 0.00 | 74 | 1016.4 |
| 20260506135159 | 51 | 132 | 0.0 | 1.0 | 0.00 | 0.00 | 0.00 | 74 | 1016.5 |